Airfield :
LOGIN :

Register | Disclaimer

   EN    FR    IT 

 










Legend :    VFR   Marginal VFR   IFR   Intensive IFR   Very Intensive IFR
Visi :
Ceiling :
>= 8 km
>= 3000ft
5 to 8 km
1000 to 3000 ft
1500m to 5 km
500 to 1000 ft
800 to 1500m
200 to 500 ft
< 800m
< 200 ft
Symbols :   Thunderstorms  Fog  Heavy snow  Heavy precipitations  Wind > 20 kt
SIGMETs :     Misc.  Thunderstorms  Icing  Turbulence  Mountain Waves  Volcanic Ashes







- Airport Elevation : 52 ft
- IATA code : RNN


EKRN - Bornholm Ronne

CURRENT METAR :
  • 222150Z AUTO 08002KT 9999NDV -SHRA SCT067/// BKN081/// BKN120/// BKN150/// 14/12 Q1006

EXPIRED METARs :
  • 222120Z AUTO 06004KT 020V100 9999NDV -RA FEW044/// OVC089/// 14/12 Q1006 RERA
  • 222050Z AUTO 11003KT 9999NDV RA OVC075/// 14/12 Q1006
  • 222020Z AUTO 07001KT 9999NDV SCT083/// BKN200/// 15/12 Q1007
  • 221950Z AUTO 11005KT 9999NDV FEW100/// SCT220/// 14/13 Q1007
  • 221920Z AUTO 13004KT 9999NDV BKN100/// 15/12 Q1007

Expired Forecast.
No reported NOTAMs for that airfield.



MET'MAP, your aeronautical weather chart ! - Copyright ORBIFLY December 2007 - Disclaimer

ORBIFLY MET'MAP TEAM :

Programming & Development : Alexandra Zaïnal
Concept & Development : Baudouin d'Aumeries
Co-Development & Prog : Marc-Olivier Méhu
Technical & hardware support : Manuel Goepfert

Contact : metmap@orbifly.com




SOURCES & CREDITS :

   NOAA